RH
11 9 9 7 6 7 9 11 11 8 6 5 6 8 8 8 8 8 8 8 8 8 8 7 7 7 8 8 9 9 9 10 10 10 11 11 12 12 13 14 15 16 16 17 17 17 18 17 17 18 19 19 19 20 21 21 22 23 23 23 25 28 30 31 28 24 22 22 25 31 33 34 34 37 39 39 43 43 45 52 51 51 56 51 64 77 43
8 8 7 7 8 10 11 10 8 5 5 6 8 9 8 8 8 7 7 7 6 6 6 6 6 6 7 7 8 9 9 10 10 10 11 12 12 13 13 14 15 16 16 17 18 18 19 19 19 19 19 19 20 21 21 22 23 23 24 25 27 28 29 32 33 31 30 30 31 32 32 33 34 36 39 39 41 44 47 50 53 56 54 49 65 73 39
8 7 8 10 11 10 9 6 4 4 6 8 9 8 8 8 7 7 7 6 6 6 6 5 5 5 6 6 7 8 8 9 9 10 11 11 12 12 12 13 14 15 16 17 18 19 19 20 20 19 19 20 20 21 22 23 23 24 25 25 27 28 27 29 32 36 40 41 37 32 31 35 35 36 39 40 41 45 47 51 57 58 52 50 57 53 31
9 10 11 11 9 8 5 4 5 7 8 9 8 8 8 7 6 7 7 6 6 6 5 5 5 5 5 5 6 7 7 7 8 9 10 10 11 12 12 13 13 14 15 16 17 18 19 20 20 19 20 21 21 22 23 23 24 25 26 26 27 29 27 26 29 30 31 31 29 30 33 35 34 34 37 39 42 45 48 54 56 51 52 53 45 37 34
12 12 11 8 6 5 4 6 8 8 8 8 7 7 6 5 6 6 5 5 5 5 5 5 5 5 5 5 5 6 5 6 7 7 9 9 10 11 11 11 13 13 15 16 17 18 19 20 21 20 21 21 21 23 23 23 24 24 26 27 28 30 28 27 28 27 25 25 26 30 33 33 30 30 34 37 40 44 47 49 47 45 54 54 36 33 42
12 9 7 5 4 5 7 8 8 7 7 6 5 5 4 4 4 4 4 4 4 4 4 4 4 4 4 4 4 5 5 6 6 6 7 8 9 10 10 10 12 13 14 15 16 17 19 20 20 20 21 21 22 22 22 23 24 24 26 27 28 31 30 28 29 28 25 26 27 30 32 31 29 29 31 34 38 42 42 40 40 46 54 48 33 36 44
7 5 5 5 6 8 7 6 6 5 5 4 3 4 3 3 3 2 3 2 2 3 2 2 3 3 3 3 4 4 5 5 6 6 6 7 7 8 9 10 12 12 13 15 15 17 19 19 20 21 21 21 22 22 22 23 24 24 26 28 29 32 32 30 32 31 26 25 28 29 29 28 27 26 28 31 34 36 36 35 39 47 49 40 35 40 41
5 6 7 7 7 6 4 4 4 3 3 3 2 2 2 2 2 2 2 2 2 2 2 2 2 2 3 3 3 4 4 4 5 5 6 6 6 7 9 10 11 12 13 14 15 17 18 18 20 20 21 21 22 22 22 23 24 25 26 28 29 32 33 32 34 34 28 24 26 28 28 30 28 25 25 29 32 34 36 35 37 43 43 37 38 44 41
7 7 6 5 4 3 2 2 2 2 2 2 2 2 2 2 2 2 2 2 2 2 2 2 2 2 3 3 3 3 3 4 4 4 5 6 6 7 8 9 10 11 12 13 14 15 16 17 19 19 20 21 21 22 22 23 24 24 26 28 29 31 33 32 36 39 32 25 28 30 30 30 28 24 26 29 33 35 35 34 34 37 39 38 42 45 42
6 4 3 2 2 2 2 2 1 2 2 1 2 2 1 2 2 2 2 2 2 2 2 2 2 2 3 3 3 3 3 3 4 4 5 5 6 7 7 8 9 10 11 13 13 14 15 16 17 18 18 19 20 21 21 22 24 24 26 28 29 31 34 33 39 43 35 28 31 32 32 35 32 27 27 29 31 34 34 34 34 36 39 41 43 43 46
3 2 2 2 2 2 2 2 2 2 2 2 2 2 2 2 2 2 2 2 2 2 2 2 2 2 3 2 2 3 3 3 3 4 4 4 5 6 6 7 8 9 10 11 12 13 14 15 16 16 17 18 18 20 21 22 24 25 26 29 30 31 34 35 41 45 37 30 32 35 39 43 37 28 27 29 32 34 35 35 35 37 40 42 43 46 53
2 2 2 2 2 2 2 2 2 2 2 2 2 2 2 2 2 2 2 2 2 2 2 2 2 2 2 3 3 3 3 4 4 4 4 4 4 5 6 7 8 8 10 11 12 13 14 14 15 15 15 17 18 20 22 22 24 25 26 29 31 31 34 37 41 44 39 34 37 42 44 39 30 27 30 32 33 35 36 37 37 37 39 41 45 51 56
2 2 2 2 2 2 2 2 2 2 2 3 3 3 3 2 2 3 2 2 2 2 2 2 2 3 3 4 4 4 4 4 3 3 3 4 5 5 6 7 8 9 10 11 12 13 14 14 15 15 15 17 18 20 22 23 25 26 27 29 30 32 34 38 41 43 42 41 43 45 40 30 25 29 32 33 34 36 38 40 37 37 42 46 51 56 57
2 2 1 1 1 2 2 2 3 3 3 3 3 3 3 3 3 3 3 3 3 2 3 3 4 4 4 4 4 3 3 3 3 4 4 4 5 5 6 7 8 9 10 12 13 13 14 14 15 15 16 17 19 21 22 24 25 25 27 28 29 31 34 38 43 44 44 47 46 42 37 31 29 32 32 34 36 38 42 43 39 40 47 50 52 55 56
1 1 1 2 2 2 3 3 3 3 3 3 3 3 3 2 2 2 2 3 2 3 3 4 4 4 3 3 3 3 3 4 4 4 4 4 5 6 7 8 9 10 11 12 13 13 14 16 17 17 18 19 21 23 24 26 26 26 27 28 29 32 34 38 45 46 47 52 54 52 50 41 32 31 33 37 40 41 45 46 40 42 50 52 52 54 54
2 2 2 3 3 3 4 4 4 5 5 5 6 6 6 5 5 5 5 4 4 4 5 4 4 3 3 4 4 4 4 4 4 4 5 5 6 6 8 9 10 11 12 12 13 14 15 16 18 19 19 20 23 25 26 28 28 27 29 29 30 32 34 37 44 46 47 54 57 57 53 40 30 34 39 41 42 42 45 49 47 48 54 52 50 49 46
2 2 4 5 6 7 8 9 10 11 11 12 12 12 12 12 12 11 11 11 10 9 8 8 7 7 6 6 5 6 6 5 5 6 5 6 7 7 9 10 10 11 13 13 14 15 15 16 17 18 19 21 25 28 29 30 30 29 30 31 32 33 35 38 43 43 46 55 59 54 45 35 34 40 42 42 43 45 49 55 54 49 47 46 46 47 45
5 7 9 11 12 13 14 14 15 15 15 16 15 16 16 16 16 16 16 16 15 14 13 13 12 12 10 10 10 9 8 8 7 7 6 7 8 9 10 11 11 12 13 14 15 15 15 16 17 19 20 23 26 30 30 31 32 31 32 33 33 35 37 39 41 42 45 54 61 54 41 35 39 44 44 45 48 48 52 57 55 48 44 44 45 44 41
12 14 15 15 16 16 16 17 17 17 18 18 18 18 18 18 18 18 17 18 18 17 17 16 16 15 14 13 13 11 10 10 8 8 8 8 9 10 10 11 13 14 14 15 15 16 16 17 19 21 24 25 28 31 32 32 33 33 34 35 35 37 39 40 41 43 45 50 56 53 43 40 43 45 46 48 49 51 55 56 51 42 33 26 23 20 17
16 16 16 17 17 17 17 17 18 18 18 19 19 19 19 18 18 18 17 18 18 18 17 17 16 16 15 15 14 13 12 11 10 9 10 9 11 12 12 13 14 14 14 15 16 17 19 20 22 24 26 27 30 33 33 33 33 34 35 37 37 39 41 42 42 45 47 50 54 53 47 44 46 49 51 51 52 55 54 43 27 17 11 8 9 10 10
17 16 16 17 16 17 17 17 18 18 18 19 19 18 18 17 17 17 16 17 17 16 16 16 15 15 14 13 13 13 12 12 12 11 11 11 12 13 13 14 14 14 16 17 19 21 23 24 25 27 28 30 32 33 34 34 33 33 35 37 39 41 43 44 45 47 50 51 50 50 48 48 50 53 48 40 35 32 28 18 9 6 8 9 11 13 14
16 16 16 16 15 16 16 17 18 18 17 18 17 16 17 16 16 16 16 15 16 15 15 15 14 14 14 14 14 13 13 13 13 13 13 14 15 16 17 18 19 20 22 24 25 26 27 29 29 30 31 33 33 34 35 36 35 35 36 38 41 44 46 47 48 50 51 51 49 50 49 45 41 35 24 15 11 11 10 9 8 8 10 12 13 16 17
16 15 15 15 15 16 17 17 18 18 17 17 16 16 16 16 16 17 16 16 16 15 15 15 15 15 15 14 14 14 14 16 16 18 20 21 21 23 25 25 27 28 29 30 31 31 31 33 33 34 34 35 35 35 36 37 37 37 38 41 44 48 50 52 53 54 54 51 45 40 37 34 28 19 12 8 8 8 8 8 8 9 11 14 15 14 13
16 15 15 15 15 16 17 17 18 17 17 16 17 16 17 17 17 17 17 17 16 16 16 16 16 16 16 16 18 20 21 23 25 26 28 29 29 30 30 30 30 30 29 30 30 30 31 33 34 35 36 35 36 38 38 39 41 41 42 45 48 51 53 54 53 50 47 42 33 25 25 29 26 17 12 10 8 7 8 8 9 10 12 13 13 12 11
16 16 16 16 16 17 18 18 18 18 18 18 19 20 20 20 21 21 21 20 19 19 21 21 20 20 21 22 25 27 27 28 30 30 30 30 30 30 29 28 27 26 26 27 27 27 29 30 32 35 37 36 37 39 40 41 43 44 45 50 54 56 56 50 41 36 34 33 28 22 24 28 23 13 11 12 10 9 10 10 9 10 11 12 13 11 10
16 17 16 16 17 17 18 19 19 20 20 21 22 23 23 24 24 25 25 25 23 24 26 25 24 24 25 26 28 28 28 29 28 27 26 26 26 25 25 24 24 25 25 26 27 27 28 28 30 34 37 37 38 40 41 43 45 46 51 56 57 53 46 34 26 25 29 30 26 22 25 29 23 14 12 12 10 10 11 10 11 11 12 12 12 11 10
17 17 16 17 18 18 19 21 22 22 22 22 23 24 24 25 25 26 26 25 25 24 25 25 25 25 26 28 27 26 25 25 24 22 23 24 25 24 24 25 25 25 26 27 27 28 28 28 29 31 34 37 38 38 40 43 46 52 56 54 45 36 29 23 20 21 23 22 18 15 17 20 17 13 11 11 10 10 11 11 11 12 12 12 11 10 10
16 17 17 18 18 18 19 21 22 23 22 22 22 23 24 24 24 24 24 23 23 23 24 25 25 26 26 27 25 22 22 23 23 24 24 26 26 25 25 26 25 25 27 27 26 25 26 28 28 29 32 35 36 36 38 43 50 56 53 42 32 27 24 21 20 19 18 15 13 12 12 12 12 11 11 10 11 11 11 12 12 12 12 11 11 10 10
15 16 17 18 18 19 20 21 22 23 22 22 22 23 23 23 22 22 23 22 22 23 24 25 26 26 26 25 22 21 23 24 25 25 25 25 26 25 25 25 24 23 24 23 20 19 22 26 28 28 31 34 36 36 40 46 54 56 49 40 35 32 28 22 18 18 18 15 13 12 12 12 12 11 11 11 12 12 12 12 11 11 10 11 11 11 11
15 15 16 17 18 19 20 21 21 22 22 22 22 22 22 23 22 22 23 23 23 24 25 24 24 23 24 23 22 23 24 25 25 26 26 26 26 25 22 20 18 17 16 15 15 16 20 24 26 27 30 35 38 41 45 51 56 56 52 47 43 38 33 28 22 20 21 19 16 13 12 12 12 12 12 12 13 12 11 11 11 11 10 10 11 12 14
15 15 15 16 17 17 18 20 20 21 22 21 21 22 22 22 23 24 24 24 24 24 24 22 21 20 22 23 23 24 25 25 26 26 26 24 21 18 15 13 12 11 12 12 14 17 20 22 25 28 32 37 40 45 52 57 59 58 56 52 47 40 36 33 28 24 22 20 17 16 15 13 12 12 12 12 12 12 12 11 10 10 10 12 15 18 21
14 15 14 15 15 16 17 18 19 20 21 21 21 22 22 22 23 24 24 24 24 23 22 21 20 20 22 23 24 25 26 26 26 24 21 17 14 11 11 11 11 12 13 14 16 18 20 23 29 32 35 37 42 50 60 65 64 60 55 49 44 40 37 33 29 25 20 15 15 17 16 13 12 13 13 13 12 12 11 10 11 11 13 15 18 22 24
14 14 14 14 15 15 16 17 18 19 20 21 21 21 21 21 22 22 22 22 22 21 20 20 20 21 23 24 26 27 26 24 20 16 13 12 12 12 14 15 14 15 17 19 19 20 22 26 31 33 36 40 46 55 65 69 63 53 45 40 38 36 33 28 23 19 16 13 13 14 14 12 12 12 12 12 11 11 11 13 16 17 17 16 17 18 19
16 15 15 15 15 15 15 16 17 18 18 19 20 20 20 19 19 19 20 20 20 20 21 21 22 23 24 26 26 25 21 17 13 12 13 14 16 18 20 20 20 20 22 23 23 23 25 29 31 34 39 45 50 59 67 66 55 44 38 37 36 33 29 24 19 15 14 14 13 13 14 14 13 12 11 11 11 11 13 16 20 22 20 19 19 21 21
18 18 18 17 17 17 16 16 17 17 17 18 19 19 19 18 18 18 19 19 20 22 22 23 24 25 26 25 22 18 14 13 13 15 17 19 21 25 26 25 25 26 27 27 26 26 28 30 33 37 43 49 56 65 68 57 45 39 36 34 30 26 23 20 17 14 13 14 14 14 14 14 12 12 11 10 10 12 16 19 21 24 24 23 24 25 25
15 16 16 17 18 18 18 18 18 18 18 18 18 18 18 18 18 18 19 20 22 24 24 25 26 26 23 20 16 14 14 16 19 21 23 25 28 30 30 29 29 30 30 29 28 28 29 33 37 42 48 56 65 70 64 49 39 36 31 25 21 18 16 15 15 14 14 14 14 14 14 13 12 12 13 13 14 17 21 24 25 26 27 27 27 26 25
9 10 11 12 14 15 16 17 18 19 19 19 20 20 19 19 19 20 21 23 25 25 24 24 23 21 18 16 15 16 19 21 24 26 28 30 32 34 34 33 34 34 33 31 30 30 31 36 41 46 53 64 73 70 59 48 41 34 27 21 17 16 15 15 15 14 13 13 13 12 11 10 9 10 13 17 19 22 25 26 27 27 27 28 27 27 27
7 7 8 8 9 10 11 12 13 14 15 17 19 20 20 21 21 22 23 26 26 24 21 19 18 17 16 16 18 21 23 26 29 32 34 36 37 38 38 38 37 38 36 33 32 33 34 38 44 50 59 70 75 67 57 51 43 32 24 19 17 16 16 15 15 14 14 14 13 12 13 12 10 10 14 17 20 23 24 25 25 25 25 26 27 27 28
7 7 7 8 8 8 8 8 9 10 12 15 17 19 21 22 22 24 25 26 23 19 17 16 17 17 18 19 21 25 29 33 36 38 41 43 43 42 42 41 41 41 38 33 33 36 37 40 47 52 59 68 71 65 59 53 43 30 21 18 16 16 16 15 15 15 14 14 14 17 23 25 23 21 22 23 23 23 23 23 22 23 23 23 24 27 30
7 7 7 8 8 8 7 7 8 9 11 14 17 19 21 23 24 24 24 22 19 17 16 17 18 19 20 22 26 31 37 42 44 46 49 49 48 47 47 44 42 41 37 33 36 40 41 42 47 52 57 63 66 64 59 50 36 24 19 17 17 16 16 14 14 13 13 14 16 20 24 25 25 28 32 32 28 26 26 25 24 23 24 25 27 31 36
7 7 7 7 8 8 7 8 8 10 12 15 17 19 21 22 22 22 21 19 18 18 18 20 21 21 23 29 36 41 46 48 50 51 52 51 50 49 49 46 44 41 37 36 41 45 43 42 48 54 59 63 65 62 53 39 25 19 19 18 17 16 14 12 11 11 14 19 23 23 23 21 22 29 34 33 29 27 27 27 27 28 31 35 39 43 48
7 7 8 7 8 8 8 9 10 11 12 14 16 17 17 18 18 19 19 19 20 20 21 22 24 27 33 40 46 48 49 50 51 50 50 50 49 48 49 48 45 41 39 44 48 47 44 45 51 56 60 64 65 57 42 28 20 20 19 17 16 14 11 9 10 12 17 23 25 24 22 21 21 24 26 26 26 27 28 32 39 45 48 51 54 58 65
7 8 8 8 8 8 9 11 11 12 13 14 15 15 15 16 18 19 20 20 21 22 23 27 32 38 44 48 49 48 46 44 42 41 42 44 46 47 48 48 46 43 45 49 49 45 45 50 56 60 65 66 58 44 30 22 21 21 18 15 13 11 10 12 15 16 18 20 22 21 21 21 20 21 24 29 34 38 39 44 52 57 59 61 64 70 78
7 7 8 8 9 9 10 11 12 13 14 14 14 15 16 17 19 20 20 21 23 26 31 38 44 48 49 46 42 38 34 29 28 32 36 38 41 45 47 47 47 46 48 49 48 48 52 57 62 67 69 60 44 32 27 25 22 19 15 12 9 9 11 16 19 18 17 18 19 19 20 20 22 26 32 38 45 51 53 52 54 57 60 64 69 74 78
6 6 7 8 9 9 10 11 12 13 14 15 15 17 18 20 21 22 23 26 31 38 45 51 51 46 40 32 26 22 18 16 20 28 32 32 36 41 43 43 44 47 49 51 53 56 60 66 68 66 57 45 36 34 32 26 19 15 12 9 8 11 14 17 18 18 17 17 18 20 23 28 33 38 41 42 47 52 54 53 56 61 66 69 72 74 75
6 6 6 7 8 9 11 13 13 15 17 18 19 21 23 24 26 29 33 39 45 50 51 47 38 28 20 15 12 12 12 14 20 26 29 31 36 40 40 40 45 51 54 56 61 65 72 77 75 62 49 44 44 40 31 20 14 12 11 10 12 14 16 17 17 17 17 19 22 28 34 39 43 45 45 43 43 46 50 52 57 64 70 74 77 80 82
5 6 7 9 11 14 16 17 18 21 23 25 26 29 31 33 36 41 46 50 50 45 36 26 17 11 9 9 9 10 12 16 22 27 30 32 37 40 41 46 53 59 60 65 74 83 86 81 69 57 52 53 48 34 21 14 11 10 11 14 16 16 16 16 17 18 21 27 33 39 42 45 46 46 45 42 40 43 49 52 51 55 66 76 83 87 88
7 9 12 14 17 20 22 24 27 29 31 33 36 39 41 43 47 50 50 44 35 25 16 10 8 8 8 8 9 11 15 21 26 30 32 35 41 45 49 55 62 66 69 76 86 92 89 78 66 62 62 55 38 21 14 12 11 11 14 16 16 15 16 17 20 25 33 39 41 42 44 45 45 44 43 42 40 42 46 44 41 46 61 77 85 86 86
10 14 16 19 22 25 27 31 34 36 38 40 43 45 47 49 48 44 35 24 15 10 8 8 8 8 8 8 10 15 21 26 29 33 37 44 50 54 57 63 70 75 79 84 88 89 87 81 76 71 60 42 23 13 13 13 13 14 16 15 15 16 20 24 29 36 41 44 43 43 44 45 45 44 44 43 41 39 37 35 37 44 56 70 81 85 83
13 15 18 22 26 29 32 35 38 39 41 43 45 46 45 42 35 25 16 10 8 8 8 8 8 8 8 11 15 20 25 28 31 36 42 48 53 59 66 74 82 86 89 92 93 93 90 86 78 65 45 25 14 12 14 14 15 15 15 16 19 24 30 34 38 40 42 43 43 42 42 45 47 47 45 42 38 34 31 34 41 46 49 56 68 74 72
14 16 21 26 29 32 35 37 39 40 41 41 40 37 32 25 17 11 8 8 9 8 8 8 9 9 11 15 19 23 26 31 36 43 47 50 56 67 79 87 91 92 93 95 98 98 92 81 65 45 27 15 12 13 14 14 15 17 20 24 30 35 39 40 40 39 40 41 41 41 42 46 47 45 39 35 32 29 27 29 35 40 41 44 51 58 62
16 21 27 31 33 34 36 37 38 38 37 34 29 24 18 12 9 9 9 9 9 8 8 9 10 11 14 18 22 25 28 33 38 44 50 56 64 75 86 92 94 95 94 94 95 93 83 66 44 26 16 14 15 15 15 15 17 22 30 37 39 41 42 42 40 39 39 40 41 42 42 41 39 34 28 25 25 27 26 25 24 26 30 36 43 49 54
Wind_Speed
10 9 9 7 6 5 5 5 6 6 5 4 4 4 4 5 4 4 4 4 5 5 5 6 6 6 6 7 7 8 8 8 8 8 8 9 9 9 9 10 10 11 11 11 12 13 13 14 13 12 13 13 14 14 15 16 16 16 15 15 15 14 14 17 20 21 21 20 15 10 10 14 17 18 19 18 18 19 16 15 17 13 15 18 6 7 25
10 9 8 6 5 5 5 6 6 5 4 4 4 4 4 4 4 4 4 5 5 5 5 5 6 6 6 6 7 7 7 7 7 7 8 8 9 9 10 11 11 11 12 12 13 13 12 12 13 14 14 15 15 15 16 17 16 16 16 16 16 14 14 17 18 17 16 13 9 9 13 18 22 23 22 22 22 21 20 21 19 14 18 18 8 10 30
9 8 6 6 5 6 6 5 4 4 4 3 3 4 4 5 5 5 5 5 5 6 6 6 6 6 6 6 6 6 7 7 7 7 8 9 10 10 11 11 12 12 12 13 13 13 13 13 14 15 15 15 16 16 17 17 17 18 18 18 19 17 18 19 15 8 7 10 11 14 19 21 25 28 26 25 24 22 21 19 15 14 17 17 15 21 39
7 6 5 5 6 6 5 4 3 3 3 2 3 4 5 5 5 5 6 7 7 7 7 7 8 8 8 7 7 7 7 7 8 8 8 9 10 10 11 12 12 12 12 13 13 14 14 14 14 15 16 16 17 17 17 18 18 19 19 19 20 20 21 22 19 17 18 22 23 23 24 25 28 31 29 27 25 24 22 20 21 22 20 22 28 35 42
6 5 5 6 6 5 4 3 3 3 2 2 4 5 5 5 5 6 7 7 7 7 7 8 8 9 9 9 8 8 9 8 9 9 9 9 10 11 11 11 12 12 13 14 14 14 14 15 16 16 16 17 17 17 18 19 20 20 20 19 19 21 23 22 23 25 25 27 28 26 26 28 30 32 31 28 23 24 26 26 30 29 20 23 36 38 38
5 5 5 5 4 3 2 2 2 2 2 3 4 4 4 4 5 5 6 6 6 7 8 8 9 9 9 9 9 9 9 9 10 10 10 10 11 12 12 11 12 13 14 14 15 15 15 16 17 16 17 18 18 19 20 20 20 20 19 19 19 22 25 25 25 26 25 27 29 28 27 29 30 31 32 31 28 30 32 31 34 33 28 29 39 39 40
5 5 5 4 3 2 1 1 1 2 2 3 4 4 4 4 4 5 5 6 6 7 8 8 8 9 9 10 10 10 10 10 11 11 11 12 12 12 12 12 13 14 14 15 15 15 16 17 17 18 19 19 19 20 21 20 20 20 20 21 21 22 25 26 27 29 28 27 27 28 28 29 30 33 36 36 34 32 31 29 29 32 36 36 38 39 43
5 4 3 2 2 1 0 0 1 1 2 3 4 4 5 5 5 5 6 7 7 8 8 8 9 9 9 10 10 10 10 11 11 12 13 13 13 13 13 13 13 14 14 15 15 16 17 17 18 19 19 19 20 21 21 21 22 22 23 24 23 23 25 27 28 31 32 27 26 27 26 26 32 37 35 30 26 23 23 24 25 29 33 35 35 39 43
4 3 3 2 2 1 1 1 1 2 3 4 5 5 6 6 6 7 7 8 8 9 9 9 10 10 10 10 10 11 11 12 12 13 13 13 13 13 13 13 14 15 15 15 16 16 17 18 18 19 20 20 21 21 22 23 23 24 25 25 25 24 26 28 27 30 33 30 26 25 24 29 37 34 23 18 20 21 21 21 24 27 30 33 35 38 40
4 4 3 3 2 2 2 2 3 3 4 5 5 6 7 7 8 8 9 9 9 10 10 11 11 11 11 11 11 12 13 13 13 14 13 14 14 14 14 15 15 16 16 16 16 17 18 18 19 20 20 21 21 21 22 23 23 25 25 25 26 25 26 28 24 24 30 29 25 27 29 29 26 18 17 23 26 22 19 20 24 28 29 32 34 35 39
5 4 3 3 2 2 3 3 4 4 5 6 7 7 8 8 9 9 10 11 10 11 11 12 12 12 12 13 13 13 14 14 14 14 14 14 15 15 16 16 16 16 16 16 17 18 19 19 19 20 21 22 22 21 22 22 21 23 23 24 26 24 24 26 22 21 27 30 29 29 22 11 11 19 25 26 20 16 18 23 27 31 32 31 30 34 41
4 4 3 3 2 3 4 4 5 6 7 8 8 9 9 10 11 11 11 12 12 12 12 12 13 13 13 14 14 14 14 14 14 15 15 15 16 16 16 16 17 17 16 17 18 19 19 19 20 21 21 21 21 20 20 20 18 19 21 22 23 23 23 23 22 22 28 31 26 16 7 9 20 26 21 15 15 20 26 28 30 32 30 27 29 37 43
3 2 2 2 3 4 6 7 8 9 9 10 10 11 11 11 12 12 13 13 12 12 13 13 13 14 13 14 14 14 14 15 15 15 15 16 15 16 16 16 16 17 17 17 18 19 20 20 20 20 20 20 20 19 17 16 16 18 20 20 20 21 21 21 22 22 23 21 12 5 15 29 28 15 9 16 25 30 31 34 34 27 21 26 36 42 44
1 2 3 5 6 7 8 9 10 10 11 11 12 12 12 12 13 13 13 13 13 13 13 13 13 13 13 14 14 15 15 15 15 15 15 16 16 16 15 16 16 16 16 17 17 18 19 20 20 20 20 18 17 16 15 16 18 19 20 20 19 18 19 20 19 16 15 16 15 19 29 30 18 9 15 26 31 32 32 37 34 23 21 34 44 46 47
3 5 6 8 9 10 10 11 11 11 11 11 12 12 12 12 13 13 13 14 13 13 13 13 13 13 14 14 14 15 15 15 15 15 16 16 16 15 15 15 15 16 16 16 17 18 18 19 19 19 18 16 15 16 17 18 19 20 19 19 18 17 18 18 16 14 15 16 17 18 17 12 11 17 24 29 32 35 36 37 32 25 29 43 48 48 51
7 8 9 10 10 10 10 10 10 10 10 10 11 11 11 12 13 13 13 14 14 13 13 13 14 14 14 14 15 15 16 16 16 16 16 15 15 15 14 14 15 15 16 17 17 17 17 17 18 18 17 17 16 17 18 18 19 20 18 18 18 18 19 19 17 19 20 17 12 7 7 12 21 25 27 31 37 41 39 32 28 30 38 45 47 48 51
9 9 9 9 8 8 8 8 8 8 9 9 10 10 11 12 12 13 13 14 14 14 13 14 14 14 15 15 16 16 16 16 16 16 16 15 15 15 14 14 15 15 16 16 16 17 17 17 18 19 18 18 18 17 18 18 18 18 19 19 20 20 20 20 20 22 23 21 16 14 17 22 24 25 31 37 40 40 32 21 25 40 46 46 48 51 52
7 6 6 6 6 6 7 7 8 9 9 10 10 11 12 12 13 13 13 14 14 14 13 14 14 14 15 15 15 15 16 15 15 15 15 14 14 14 13 14 15 15 15 16 16 16 17 17 18 19 19 19 18 16 16 17 18 19 21 22 23 22 20 20 21 22 22 20 20 22 25 23 21 27 36 38 36 34 26 23 35 49 50 48 50 52 51
4 4 5 6 6 7 8 8 9 9 10 10 11 11 12 12 13 13 13 13 14 13 13 13 13 13 13 14 14 14 14 14 14 14 13 13 12 13 13 13 14 14 15 16 16 17 18 18 17 18 18 18 17 16 17 20 21 22 23 22 23 22 18 17 18 18 18 18 19 21 22 19 21 30 34 33 33 33 33 37 45 47 47 49 50 48 49
4 5 6 7 7 8 8 9 10 10 10 11 11 11 12 12 13 13 13 12 12 12 12 12 12 12 12 13 13 13 13 13 13 12 12 11 11 12 13 13 14 15 16 17 17 17 18 19 18 18 18 18 18 19 22 24 24 23 22 20 20 19 16 15 17 16 16 15 13 13 16 20 28 33 33 32 35 36 38 44 45 43 45 48 48 48 50
6 7 7 8 8 8 9 9 9 10 10 10 10 11 11 12 12 12 12 12 12 11 11 11 11 11 11 11 11 11 11 11 11 10 11 11 11 11 12 13 15 16 17 17 18 18 19 21 21 20 20 21 22 23 23 25 25 24 21 18 17 16 15 17 19 17 17 17 15 14 18 24 29 32 33 33 34 35 39 44 46 46 47 48 50 53 52
7 7 8 8 8 8 9 9 9 9 9 10 10 11 11 11 11 11 11 11 11 11 10 10 10 9 10 10 10 10 10 10 10 10 11 11 11 12 13 14 15 17 17 18 19 19 20 22 23 23 23 23 24 23 23 24 25 22 19 18 17 16 17 19 20 18 19 21 21 21 23 24 27 30 33 34 34 36 39 43 45 47 48 49 52 54 53
8 8 9 9 8 8 9 9 9 9 10 10 10 10 9 9 9 9 10 9 9 9 8 8 9 9 9 9 9 9 10 10 10 11 11 12 12 13 14 15 16 17 18 19 20 21 22 23 23 24 24 23 23 23 24 23 22 21 20 18 16 15 15 16 17 19 20 20 20 23 25 25 27 30 33 35 38 40 41 43 45 46 48 49 51 52 54
9 10 9 9 9 9 9 9 9 9 9 9 9 8 8 9 9 9 9 9 8 8 8 8 9 9 9 9 9 10 10 11 11 12 12 13 13 14 15 16 16 18 19 19 21 22 23 23 24 24 24 23 22 23 23 21 20 21 20 16 14 13 14 15 18 20 22 23 23 26 29 28 29 33 35 37 39 41 41 43 45 46 48 50 51 52 55
10 10 10 10 9 9 8 9 9 9 8 8 8 9 9 10 10 10 10 10 8 8 9 9 9 9 9 9 10 11 11 12 12 12 12 13 14 14 15 16 17 18 19 20 21 22 23 23 24 24 24 23 21 21 21 19 20 21 18 14 14 15 17 19 21 22 24 26 28 32 34 31 30 35 38 40 43 44 43 44 46 49 50 52 53 55 57
10 10 10 10 9 9 8 8 8 8 8 9 9 10 10 11 11 11 11 11 9 9 10 10 9 9 10 10 10 11 12 12 12 12 13 14 15 15 16 17 19 20 20 21 22 23 23 23 23 23 23 21 20 20 19 18 18 15 11 11 15 18 19 22 26 27 27 29 32 37 40 38 36 39 41 43 46 48 48 49 51 53 54 56 58 59 61
9 9 9 9 9 9 9 9 9 9 9 10 10 11 11 11 11 11 11 11 10 10 10 10 9 9 9 9 10 11 12 12 12 13 14 15 16 17 18 19 21 22 22 22 23 24 24 24 23 23 21 19 18 18 18 15 11 6 6 11 16 19 21 26 30 32 33 34 36 39 43 45 46 46 47 48 49 51 54 55 57 58 60 62 64 65 66
9 9 9 9 9 9 9 9 9 10 10 10 11 11 11 11 11 10 10 11 10 10 11 10 8 8 9 9 9 11 12 12 13 14 16 17 18 20 21 21 23 24 24 25 26 26 26 24 23 22 20 17 16 17 15 10 4 3 6 13 18 21 25 29 31 33 36 37 38 40 42 47 49 49 50 52 53 55 58 59 61 63 64 65 67 68 69
10 10 10 10 10 10 10 10 10 10 10 10 11 11 11 11 11 10 10 10 10 10 10 9 8 7 8 8 9 10 11 13 14 16 18 20 21 23 24 25 26 27 26 27 28 27 26 23 21 20 19 17 16 14 11 5 1 2 9 16 20 24 28 32 34 37 40 41 44 45 46 49 52 53 54 55 56 58 61 63 64 66 66 66 67 66 65
10 10 10 10 10 10 10 10 10 10 10 10 11 11 11 10 10 10 10 10 10 10 9 9 8 7 7 8 10 11 12 15 17 19 21 23 25 26 27 28 28 28 28 28 28 26 23 21 20 20 19 17 14 11 7 2 2 3 12 19 24 27 30 33 37 41 43 46 48 50 50 52 54 56 57 57 58 60 63 65 65 66 67 66 65 63 62
10 10 10 10 10 10 10 10 10 10 10 10 10 10 10 10 10 10 10 10 10 10 9 9 9 9 8 9 12 14 15 17 20 22 25 26 27 28 29 29 29 29 28 27 25 23 22 21 20 18 17 15 12 6 2 2 3 9 16 23 27 30 33 35 38 41 44 47 50 51 53 55 56 58 59 61 61 62 64 65 65 65 64 62 60 58 57
9 9 10 10 10 10 10 10 10 10 10 10 10 10 10 10 10 10 10 10 9 10 10 10 10 10 10 12 14 16 17 20 23 26 27 28 29 28 28 28 28 27 26 25 24 23 22 21 19 16 14 12 7 1 2 4 11 18 24 28 31 33 36 38 40 43 46 50 52 54 56 58 59 60 61 62 63 63 64 64 63 62 61 59 56 54 53
9 10 10 10 11 11 11 11 11 10 10 10 10 10 10 11 10 10 10 10 10 10 11 11 11 12 13 15 17 19 21 24 27 28 28 28 28 28 28 28 27 25 24 24 25 24 22 20 17 15 14 9 2 4 3 11 20 26 31 34 36 38 40 43 45 48 50 52 55 57 59 61 63 63 63 64 64 64 62 58 56 56 56 56 55 54 54
11 11 11 12 12 11 12 12 11 11 11 11 11 11 11 11 11 11 11 11 11 11 12 13 14 15 15 18 20 23 25 27 28 28 28 28 28 29 29 28 26 25 25 25 25 23 21 19 17 15 11 4 3 3 6 16 24 30 34 36 39 41 44 46 49 52 54 55 57 57 58 60 62 64 65 67 65 62 58 54 52 52 53 54 54 54 56
13 13 13 13 12 12 12 12 12 12 12 12 12 12 12 12 12 11 11 11 12 12 13 15 17 17 18 21 24 25 27 28 28 28 29 29 30 30 30 27 26 26 26 26 24 22 20 18 15 10 5 1 1 4 13 23 29 33 36 39 42 46 48 51 54 57 59 60 60 61 61 63 64 65 66 66 63 58 54 52 51 51 53 54 55 57 58
14 14 14 14 14 13 13 13 12 12 12 13 13 13 13 13 12 12 12 12 12 14 16 18 18 19 21 25 26 27 27 28 29 30 30 31 32 32 30 27 26 27 26 25 23 20 18 16 11 5 2 2 4 9 18 27 33 38 41 45 49 52 54 56 59 61 63 64 64 64 64 65 65 64 62 60 56 52 51 51 52 53 55 57 59 60 61
16 15 15 15 15 14 14 14 14 14 14 13 13 13 13 13 12 12 12 12 13 16 18 18 18 20 23 25 27 28 29 30 32 32 33 33 33 32 29 28 27 27 25 23 20 17 15 13 8 3 2 5 9 14 21 29 36 41 46 50 53 55 57 59 61 63 66 67 68 68 69 69 68 64 60 56 53 51 52 54 55 56 59 61 62 63 64
16 16 16 15 15 15 15 14 14 14 14 14 14 13 13 12 12 12 12 13 15 18 19 18 20 23 25 26 27 29 31 32 34 34 34 34 33 30 28 28 27 25 23 21 17 13 13 12 8 4 3 5 11 18 26 32 38 43 48 53 56 58 59 61 62 64 66 67 68 69 69 69 68 63 58 55 53 53 54 56 57 58 61 63 65 67 68
16 16 16 15 15 15 15 14 14 14 13 13 13 12 12 12 11 11 12 15 17 19 19 20 22 25 27 28 29 31 33 35 35 35 35 34 32 29 28 27 25 23 22 18 13 12 14 13 8 7 8 8 12 20 28 35 40 46 51 55 58 60 61 62 62 62 63 63 63 61 59 58 59 57 54 54 55 56 57 59 60 62 64 67 68 70 71
16 16 15 15 15 15 14 14 13 12 12 11 11 10 10 11 11 12 14 17 19 19 21 23 25 27 28 30 32 34 35 36 36 35 33 31 28 27 27 25 23 21 18 14 12 15 18 15 9 9 12 13 16 23 31 38 44 50 54 57 59 61 62 62 63 62 61 59 57 54 52 53 54 54 54 57 60 62 62 64 65 66 69 70 71 72 72
16 16 15 15 14 14 14 14 12 11 11 10 9 9 10 10 12 14 17 18 19 21 23 26 27 29 30 33 35 36 37 37 35 33 31 28 27 26 24 23 20 17 13 12 15 19 20 14 7 10 13 15 20 28 35 41 48 53 57 60 62 63 64 64 63 60 57 54 53 53 54 55 55 55 57 61 64 66 67 68 69 70 71 72 72 72 70
16 16 15 15 14 14 14 13 12 11 10 10 10 10 11 12 14 16 18 19 21 24 26 27 29 31 33 35 37 37 36 34 32 30 29 27 25 24 23 20 16 13 14 17 20 19 16 10 7 11 14 19 25 32 39 46 53 58 62 64 65 65 65 63 59 54 52 52 55 56 57 58 59 59 61 64 66 68 69 71 71 71 71 71 70 69 67
16 15 15 15 14 14 13 12 12 12 11 11 12 13 13 15 16 18 20 21 23 26 27 29 31 34 35 36 36 35 32 30 28 27 26 25 24 23 22 18 15 16 19 20 18 14 11 9 10 13 19 25 30 37 45 53 60 64 66 67 66 65 61 57 53 52 52 55 57 59 60 60 61 62 64 65 68 70 71 71 71 71 70 69 68 66 65
16 16 15 14 14 13 13 12 13 13 12 13 15 16 17 18 20 21 22 23 25 27 30 32 34 35 35 34 32 29 27 26 26 25 23 23 23 21 19 18 19 21 21 17 13 11 10 11 14 20 26 32 37 45 54 61 66 69 70 69 66 60 56 54 54 55 56 57 58 60 62 63 65 66 67 68 69 70 70 70 70 69 69 68 67 65 63
15 15 15 14 13 14 13 13 13 14 15 16 18 19 20 22 23 24 25 26 28 30 32 33 33 33 31 29 28 26 25 25 24 23 22 23 22 20 19 20 21 19 16 13 13 13 13 16 22 28 34 39 47 55 63 68 70 70 69 66 60 55 53 55 57 57 58 59 61 63 65 66 67 68 68 68 68 68 68 69 69 69 69 67 64 62 61
14 14 14 13 13 15 15 14 14 16 18 19 21 21 22 24 24 25 27 28 30 31 31 31 30 28 27 26 26 25 25 24 23 22 21 22 20 20 21 21 18 14 13 14 15 17 19 24 30 35 41 48 56 63 69 72 71 68 64 60 56 54 55 56 57 58 60 63 64 65 66 66 67 67 67 67 66 66 67 68 68 68 66 64 62 61 61
13 13 13 12 13 16 17 17 18 20 21 22 22 23 23 24 26 27 28 29 29 29 28 27 26 26 26 25 25 24 24 23 21 20 20 21 20 20 19 17 13 13 15 16 18 22 27 32 36 41 47 55 63 69 73 72 68 61 57 56 55 55 56 57 59 61 63 64 65 65 65 64 64 65 65 65 66 66 66 67 67 66 64 63 63 63 63
12 13 14 14 15 18 20 20 21 22 23 23 23 23 24 25 27 28 28 27 26 25 25 25 25 25 25 24 24 23 22 20 20 20 21 21 20 18 16 14 13 14 15 18 22 28 33 37 41 47 53 61 69 73 72 67 60 55 54 54 55 56 57 59 61 62 63 63 63 62 62 62 62 63 64 65 66 66 65 65 65 66 66 66 66 65 63
12 15 16 17 18 21 23 23 23 23 23 23 24 25 25 26 26 25 24 23 24 24 24 25 25 25 24 24 23 21 19 19 20 21 20 18 16 16 17 17 17 19 21 25 30 34 37 41 45 51 58 67 72 71 64 58 54 53 53 54 55 57 59 61 61 60 60 60 60 60 60 60 61 62 63 64 65 65 65 65 67 68 68 68 66 64 63
15 18 20 20 22 23 23 23 22 23 23 24 24 24 24 23 22 22 22 22 23 24 24 25 25 25 25 24 21 19 18 20 21 20 18 17 17 18 19 19 21 25 29 32 35 38 41 45 50 58 66 71 69 62 55 53 53 53 53 55 57 59 59 59 58 57 57 57 57 57 58 59 60 61 62 63 64 65 65 66 67 68 68 67 66 65 65
18 21 23 23 24 23 23 22 23 23 23 22 22 21 20 20 21 21 22 23 24 24 25 26 26 25 24 22 20 19 20 21 19 18 17 18 19 20 21 23 27 31 35 37 39 42 45 49 56 65 69 66 59 53 51 51 52 54 56 57 58 58 57 56 55 55 55 55 55 56 58 58 59 60 62 62 63 64 64 65 66 67 67 68 67 67 67
22 24 25 25 25 24 24 23 23 22 21 20 20 19 20 21 21 22 22 23 23 24 25 27 27 25 23 22 22 22 21 20 18 18 19 20 21 22 25 28 31 34 38 41 43 45 48 55 63 66 64 57 52 51 51 51 53 55 57 57 56 55 54 53 53 53 54 54 55 56 58 58 59 60 61 61 62 63 64 65 65 66 68 69 69 68 66
Wind_Direction
206 211 223 237 245 236 216 215 234 247 261 279 293 297 298 295 289 284 284 287 290 285 280 280 282 288 289 285 285 284 279 278 277 277 275 275 279 282 284 290 293 294 297 298 298 299 297 295 291 290 292 293 294 294 297 299 300 301 300 300 302 300 292 289 294 303 304 302 298 284 290 305 303 302 300 297 295 289 280 270 270 267 252 258 231 226 296
209 220 230 233 225 215 218 232 243 256 276 287 292 299 298 291 285 283 286 291 290 285 284 284 287 291 291 288 288 285 282 282 281 280 278 278 281 283 286 291 292 294 297 298 299 300 297 294 295 296 296 296 298 297 299 300 299 300 301 300 300 297 291 290 299 312 313 306 303 299 305 310 305 301 298 297 296 292 286 276 269 265 260 255 206 238 296
215 221 220 214 212 221 230 238 250 269 282 286 297 300 291 283 280 280 283 289 290 287 286 286 290 294 293 293 293 289 289 289 287 285 281 280 282 285 288 291 292 295 296 297 299 299 296 295 296 299 300 300 300 299 300 300 299 301 302 300 298 292 288 287 288 290 291 291 298 303 305 304 301 299 297 297 295 287 283 277 259 253 259 245 226 264 302
209 206 205 209 219 228 234 246 265 271 274 289 300 293 286 285 285 286 291 293 290 288 289 293 296 297 297 299 298 296 297 297 294 292 287 285 286 288 289 292 294 295 296 298 300 299 299 298 297 301 303 300 300 300 299 299 300 301 301 300 298 291 289 291 285 275 280 291 298 301 302 301 301 302 299 295 293 287 280 265 254 261 262 256 267 284 301
194 198 207 217 224 230 239 252 261 264 279 299 295 288 287 291 294 297 302 301 297 294 297 300 301 299 299 299 298 298 300 299 297 295 292 292 293 292 294 297 296 297 299 300 301 302 302 300 300 302 302 300 301 300 299 300 300 300 300 300 296 290 290 294 289 287 292 297 299 300 301 300 301 302 299 296 294 287 277 268 270 275 264 269 293 301 298
195 205 213 219 225 229 235 242 255 278 298 298 294 294 298 304 306 306 308 307 303 302 301 300 301 300 298 297 298 299 299 300 300 298 296 298 297 297 299 301 299 298 300 300 301 304 305 303 302 303 302 303 303 301 302 301 300 301 300 298 297 291 291 294 292 292 297 298 299 301 300 298 299 299 298 299 297 291 286 285 286 280 265 276 302 306 298
201 208 211 213 213 217 229 246 278 299 306 308 309 311 316 320 319 316 316 315 311 310 310 307 306 304 302 301 301 300 300 301 300 299 299 300 300 299 301 301 300 299 300 300 301 304 304 304 304 304 304 305 305 304 304 303 302 303 299 298 298 292 292 296 294 294 299 300 300 301 301 300 299 299 301 304 302 296 293 294 292 282 277 290 306 305 303
197 197 192 184 175 175 177 42 344 331 328 325 320 318 319 320 319 317 316 315 316 317 316 314 312 311 309 307 307 306 305 303 301 301 301 301 301 301 302 302 301 301 301 302 302 301 301 302 304 304 304 305 306 305 305 305 304 302 300 298 296 291 291 296 297 296 300 305 304 302 303 303 301 301 304 307 303 298 296 297 296 288 290 304 310 302 306
173 162 147 134 127 110 74 37 358 341 331 323 316 314 315 314 311 311 311 311 312 312 312 312 313 314 312 311 311 311 310 307 304 304 302 301 302 301 301 302 301 301 302 302 301 300 300 302 303 303 304 305 306 304 304 305 302 301 300 297 294 292 291 295 298 296 300 307 308 304 304 303 300 300 307 314 311 309 307 306 305 301 304 311 307 301 312
140 131 121 111 99 70 37 11 353 339 329 323 317 312 313 311 310 309 308 310 310 310 310 311 312 314 313 312 312 311 311 310 307 306 305 306 304 301 300 300 298 300 302 302 301 300 300 302 302 303 304 305 305 304 303 303 300 299 297 293 293 293 291 294 297 294 298 305 306 306 308 307 301 302 317 324 322 316 311 312 314 313 312 310 306 311 324
122 115 104 92 75 47 26 8 352 336 323 318 314 311 309 308 308 308 306 308 310 310 311 311 312 313 312 310 310 309 310 311 310 309 308 308 306 302 301 299 298 301 303 301 302 302 302 303 303 303 304 304 305 304 302 301 299 296 294 292 293 293 292 294 293 287 294 301 305 309 309 300 305 315 318 322 322 315 314 319 323 323 319 314 316 323 328
113 104 92 74 49 19 359 346 336 326 317 312 308 307 307 306 306 307 306 307 310 310 310 310 310 310 309 309 309 308 309 311 310 309 309 308 306 304 302 300 300 302 302 301 303 304 304 305 305 305 306 305 305 304 302 301 298 295 295 293 294 295 295 292 287 283 291 301 311 318 291 288 314 317 317 328 334 327 323 324 329 331 326 323 325 326 327
103 86 49 9 345 333 327 324 321 315 310 307 305 305 306 305 305 306 306 308 310 311 310 309 308 308 309 308 307 307 308 308 309 309 310 309 308 306 303 301 300 301 302 303 305 306 307 309 308 308 309 308 307 307 306 305 302 299 298 296 296 298 294 290 287 286 291 299 305 282 291 311 325 331 332 338 337 334 330 326 331 338 333 327 328 326 326
47 348 330 323 318 315 314 312 311 309 306 305 305 306 306 305 305 307 308 309 312 312 310 310 309 309 308 307 306 306 308 309 310 311 311 311 309 307 304 302 301 302 304 305 307 309 311 312 312 313 315 315 313 313 313 310 307 305 303 301 302 299 293 291 289 287 289 287 282 289 303 317 338 356 340 338 337 337 332 325 331 343 337 330 330 325 323
320 318 316 313 311 309 309 308 307 306 305 305 306 306 307 307 307 309 309 310 312 313 312 312 312 310 308 307 307 309 310 311 311 311 312 311 310 308 306 304 303 305 306 309 311 312 314 314 314 316 319 318 314 313 313 312 310 309 308 308 309 305 298 293 285 283 286 284 292 306 310 319 337 334 335 339 339 338 332 323 327 340 335 329 328 323 321
313 313 311 310 309 308 309 309 308 308 308 309 310 311 311 311 311 311 312 311 312 314 314 312 311 310 309 309 310 311 312 313 313 313 313 313 311 310 310 308 308 309 310 312 313 314 315 314 312 312 314 314 310 308 310 310 308 310 315 315 314 311 304 295 284 281 281 278 287 297 277 300 324 332 337 340 337 335 330 320 322 332 330 325 323 322 321
309 309 309 310 312 314 315 316 317 319 320 320 320 320 318 317 316 315 315 312 312 314 314 312 311 312 311 312 313 313 314 315 316 316 316 316 314 314 314 313 313 313 313 313 315 316 315 312 311 311 312 313 311 307 309 311 308 312 319 319 315 313 308 299 290 286 284 278 272 270 282 306 326 336 338 337 333 331 329 321 319 324 324 322 322 322 323
308 312 318 324 328 330 332 333 332 332 332 331 329 327 324 322 320 319 318 315 314 315 315 313 313 314 314 314 315 316 317 318 318 318 319 319 318 317 317 316 316 316 317 317 317 316 315 314 315 313 312 315 315 310 310 314 313 316 320 319 316 314 310 304 298 295 291 280 269 278 296 313 328 333 334 334 331 329 328 318 316 320 321 323 324 325 326
334 343 346 348 349 346 342 341 339 337 336 335 333 331 329 327 325 324 323 320 319 320 320 317 318 320 319 319 320 321 322 322 321 321 322 322 322 321 320 320 321 322 321 321 321 320 318 320 319 314 312 317 318 312 311 314 315 317 318 317 317 316 312 308 305 304 300 287 277 287 303 318 328 330 332 333 330 326 320 314 316 320 323 326 327 328 329
5 1 358 353 349 346 343 340 339 338 339 339 337 336 335 333 332 330 329 327 327 328 326 325 328 329 327 328 329 328 328 327 326 326 326 326 326 325 326 327 327 326 324 324 324 323 320 319 319 315 312 316 316 312 313 314 315 316 317 318 319 317 312 310 311 311 308 297 288 295 310 323 329 329 329 330 327 322 317 317 321 326 329 329 330 332 333
6 359 356 351 349 348 347 347 347 347 348 347 346 345 343 341 339 336 334 335 336 336 334 335 338 340 338 338 338 337 335 334 333 335 335 335 334 331 330 328 326 324 324 323 322 320 317 316 315 312 310 311 312 312 312 313 314 318 321 322 320 318 316 313 311 311 306 296 294 305 316 324 328 326 325 327 325 322 322 323 326 330 332 332 332 333 334
6 2 1 359 360 1 1 2 2 2 1 360 356 354 351 347 345 342 341 343 342 341 343 345 346 347 346 346 347 347 347 348 347 348 347 344 341 337 332 329 326 324 323 322 320 318 315 313 312 310 309 310 311 311 311 310 311 316 323 324 321 323 323 316 310 311 306 300 307 320 327 330 331 328 328 329 328 326 327 327 328 331 333 333 332 330 329
14 13 13 12 14 16 17 17 16 12 9 6 2 360 357 355 354 352 351 352 350 350 353 353 351 351 352 356 0 0 360 359 358 356 353 349 345 341 336 333 331 329 327 325 322 319 317 315 311 310 309 311 311 310 310 310 310 313 322 328 328 330 331 324 320 318 312 310 321 329 328 330 334 333 331 330 328 328 330 330 329 330 330 330 329 328 326
24 22 21 21 22 24 24 23 20 15 10 7 6 7 7 7 7 4 2 2 4 3 1 358 358 1 4 8 11 9 7 6 2 359 356 352 348 346 342 340 337 335 333 330 327 325 321 317 314 311 311 312 311 308 309 311 310 313 322 334 338 336 332 328 326 323 319 321 330 330 328 332 337 333 329 328 328 329 330 330 329 328 328 327 326 326 325
29 27 26 24 22 24 26 25 23 18 13 12 14 15 17 16 12 9 7 8 10 8 3 3 7 12 14 16 16 14 10 7 4 2 1 356 352 349 346 344 341 338 336 334 332 329 324 318 314 312 311 312 311 308 307 308 310 315 328 345 347 338 333 328 326 326 325 327 331 330 327 331 336 334 331 330 329 327 327 328 327 327 326 325 325 325 325
33 31 30 26 22 23 25 25 26 22 20 20 20 19 21 19 14 11 11 13 15 13 9 11 16 18 18 20 19 15 10 7 8 9 6 1 356 350 346 343 340 337 334 332 331 330 326 320 315 311 310 311 310 308 308 312 318 328 343 352 343 336 335 334 330 329 330 330 332 330 326 327 334 336 334 332 330 328 328 328 328 327 327 326 324 324 324
33 33 32 28 24 22 21 22 23 22 20 22 23 21 22 22 19 18 18 19 21 18 14 15 18 19 19 20 17 14 12 11 11 11 6 1 357 351 344 340 338 335 332 329 329 329 325 320 316 312 311 313 311 309 312 321 336 356 356 345 342 340 341 340 335 333 336 338 337 335 330 330 335 338 336 335 334 332 331 330 329 329 328 327 325 324 323
30 29 27 26 23 19 16 16 18 18 18 20 21 21 23 24 23 22 21 19 18 16 14 13 15 15 17 18 15 14 14 12 8 3 357 353 349 345 341 337 335 333 331 328 327 327 324 321 318 316 317 318 314 313 319 331 2 42 349 345 349 347 345 345 340 335 337 339 339 337 335 333 335 336 335 335 334 332 331 331 330 329 328 327 325 324 324
22 20 19 19 17 15 12 11 13 15 15 16 17 18 19 21 21 19 16 12 10 9 8 9 11 11 12 11 7 4 3 0 356 352 347 344 341 338 336 334 332 331 329 327 326 326 324 322 320 320 321 321 318 318 324 331 80 12 342 344 347 346 345 345 342 337 337 338 338 337 337 335 334 335 334 334 333 331 330 330 329 328 327 326 326 326 327
13 12 10 10 10 9 6 6 9 11 10 11 13 13 13 14 14 10 6 4 4 4 4 6 8 4 360 1 359 353 348 346 344 342 340 339 337 334 333 332 331 330 329 327 327 327 325 323 323 324 324 324 324 325 321 280 219 326 334 336 338 339 339 340 339 337 335 335 334 335 335 334 332 332 332 333 333 331 329 328 328 327 327 327 328 329 330
3 0 359 360 0 359 358 359 3 6 6 6 6 6 6 6 4 1 359 359 359 360 359 359 358 354 349 348 348 344 342 340 338 337 336 335 334 332 332 333 332 332 331 331 331 331 328 326 328 329 327 326 328 329 312 271 302 325 330 331 333 333 332 333 334 333 332 331 329 329 330 332 332 331 331 330 330 330 328 328 328 328 328 329 330 331 332
352 350 349 351 351 350 350 352 355 358 359 358 358 359 359 358 356 355 354 353 352 352 351 347 345 345 344 341 338 337 337 336 335 335 334 334 334 335 335 336 335 334 334 334 334 332 330 330 332 333 329 327 327 355 104 0 338 333 332 332 331 330 329 330 330 331 331 332 330 328 327 329 332 332 331 330 329 328 328 328 328 327 327 328 330 331 333
345 345 344 345 344 343 344 346 347 349 349 349 351 352 351 350 349 347 346 346 343 341 340 338 336 336 336 335 333 333 333 333 334 334 335 336 337 338 338 338 338 337 336 336 334 332 331 333 335 334 331 326 292 151 72 358 345 339 337 335 332 331 331 332 332 332 332 333 333 332 330 330 330 330 329 328 328 328 328 328 328 328 327 328 329 330 331
340 340 339 339 338 337 338 339 339 341 342 342 342 343 342 341 341 339 338 339 336 334 334 334 333 331 330 330 331 331 332 333 335 337 338 339 340 340 339 339 338 337 336 335 334 333 333 334 336 335 333 321 178 154 356 346 341 337 335 333 332 331 330 331 332 333 333 333 333 332 331 330 329 328 327 327 327 327 327 327 328 328 328 328 330 331 331
334 332 331 330 329 328 329 330 330 332 335 335 334 334 333 332 332 332 332 331 331 332 333 333 331 330 328 328 330 332 334 336 338 339 340 340 339 339 339 338 337 337 336 335 334 334 334 336 338 341 341 336 152 349 342 339 337 335 334 333 333 333 332 332 332 333 333 333 333 332 330 329 328 327 327 326 326 325 325 326 327 328 329 329 331 331 331
329 327 324 322 321 320 320 321 321 322 326 328 328 327 326 325 324 325 326 326 327 331 333 333 332 331 331 331 332 334 336 338 339 340 340 339 338 338 338 337 337 337 336 335 335 336 336 340 347 0 27 27 353 341 339 338 337 336 336 336 337 337 336 335 333 332 332 332 331 330 328 327 326 326 326 325 325 326 327 329 330 330 330 331 331 331 331
331 329 325 322 319 316 314 314 313 313 315 317 319 320 319 319 318 319 321 323 325 329 332 333 332 332 333 334 334 335 336 338 339 339 339 338 337 337 336 336 336 336 335 335 335 335 339 345 349 351 2 357 341 333 334 336 336 335 335 336 337 336 336 335 333 332 330 328 326 325 325 324 324 325 325 326 328 330 331 331 331 331 332 332 332 331 330
335 333 331 328 326 322 318 315 312 311 310 309 311 314 315 315 316 317 318 321 325 330 333 334 332 332 334 335 335 336 336 337 337 338 337 336 336 336 336 335 335 334 334 334 334 334 339 341 331 295 295 333 334 331 331 332 333 334 334 334 335 335 334 333 332 330 328 327 326 325 325 324 324 324 326 328 328 328 329 329 329 330 330 330 330 330 330
339 338 337 335 333 331 328 324 320 316 313 311 311 314 315 316 316 317 318 322 327 330 333 333 334 334 335 335 335 335 335 335 336 336 336 336 335 335 335 334 333 333 333 333 332 331 334 335 318 267 254 279 312 324 327 328 329 331 333 333 334 333 332 330 329 328 327 327 326 325 326 328 328 329 331 332 331 329 328 328 328 329 329 329 329 330 330
344 343 342 340 338 337 335 332 328 325 323 321 320 321 321 320 319 321 324 326 329 331 332 333 334 334 334 334 334 334 334 334 335 335 335 335 335 335 334 334 333 332 332 334 331 327 328 330 308 252 249 273 302 315 322 326 328 331 332 332 331 331 330 329 328 327 325 324 325 326 329 332 331 331 333 335 334 332 331 330 330 329 329 328 328 328 328
349 349 347 345 343 342 340 339 339 339 338 338 337 335 332 328 326 328 329 330 330 331 331 332 332 333 332 332 333 333 334 334 334 335 336 336 336 335 335 335 333 331 330 331 326 322 323 326 296 246 256 286 305 313 319 325 328 329 330 330 330 330 329 328 327 326 326 328 331 333 334 334 334 334 334 335 334 332 331 330 330 329 328 327 326 326 326
351 351 350 349 348 348 347 348 351 354 355 355 351 345 341 336 332 331 332 331 330 329 330 331 331 331 332 332 332 333 334 334 335 336 337 337 336 335 335 335 333 329 325 323 321 319 320 316 270 248 270 295 307 312 319 324 327 328 329 331 330 330 329 328 328 330 334 336 337 337 336 335 334 334 334 333 332 330 329 329 328 328 327 326 326 325 325
351 351 351 353 355 354 354 356 0 2 1 358 351 345 341 337 333 331 331 330 328 328 329 330 330 330 331 331 332 334 336 337 338 337 336 336 335 334 334 334 332 327 323 321 319 317 315 300 273 274 291 303 309 315 321 325 327 328 329 330 331 331 331 332 335 337 338 338 337 336 335 334 333 333 333 331 330 329 329 328 328 327 327 326 326 326 325
350 351 353 355 358 358 357 358 360 358 355 350 345 340 337 334 332 330 329 329 328 328 328 328 329 331 332 334 335 337 339 339 339 337 336 336 335 333 331 329 326 323 321 319 317 313 304 289 283 290 300 306 313 320 324 327 329 330 330 330 332 333 335 337 339 339 338 337 336 334 333 333 333 333 332 331 331 330 330 329 328 328 328 328 327 326 325
351 352 354 356 359 0 358 356 354 351 346 342 339 337 334 331 330 330 329 329 329 328 329 330 332 334 336 338 339 340 340 339 338 337 335 334 334 332 328 325 323 321 320 317 312 304 293 288 293 301 307 314 320 325 328 329 330 331 331 332 333 335 337 338 338 338 336 335 334 333 333 333 334 333 332 332 332 332 331 331 331 330 330 329 328 328 329
353 355 357 359 360 358 355 351 346 343 339 336 334 333 330 329 328 328 327 327 328 329 331 334 336 339 340 341 341 340 340 339 338 337 336 334 333 330 327 325 325 322 316 311 307 300 297 300 307 312 318 322 325 327 328 329 330 332 333 334 335 336 337 337 337 336 335 334 333 334 334 334 334 333 333 333 333 333 334 333 333 332 331 331 332 333 333
358 359 359 358 354 351 347 342 338 335 332 331 330 329 327 326 326 326 326 328 330 333 337 340 341 343 343 342 341 341 340 339 337 337 336 334 331 328 327 327 327 321 314 310 308 306 306 309 314 318 322 324 326 327 328 330 331 333 334 334 335 335 336 336 335 335 334 333 334 334 335 335 335 334 333 334 335 336 336 335 335 334 335 336 336 335 333
360 356 353 349 345 342 339 335 332 330 329 328 327 326 325 326 326 327 330 333 337 340 343 345 345 345 345 343 342 341 339 338 338 338 335 332 330 327 324 321 316 310 304 302 304 306 309 313 317 320 322 325 326 328 329 331 333 334 334 334 334 335 334 334 334 333 333 334 334 335 335 335 335 335 335 336 336 337 336 336 338 339 340 339 338 336 333
352 349 346 342 339 337 335 332 330 328 327 325 324 324 325 327 329 332 336 340 342 345 346 346 346 346 345 343 342 341 340 339 337 335 331 328 324 319 315 312 309 306 304 304 306 308 312 315 318 320 322 325 327 329 331 332 333 333 334 334 334 333 333 332 333 333 334 335 335 336 336 336 336 336 336 336 336 336 337 340 342 343 342 340 338 336 334
340 341 340 338 336 335 334 331 328 326 324 323 324 326 328 331 334 339 342 344 345 346 347 346 345 345 344 342 341 340 339 336 332 327 323 320 315 310 308 308 306 306 307 309 310 312 315 317 319 320 323 326 328 330 331 332 333 333 333 333 332 331 332 333 334 334 335 336 336 336 336 336 336 336 335 335 335 336 339 342 343 343 341 341 340 338 336
334 337 337 336 335 335 333 329 326 324 324 325 328 331 335 338 341 344 346 346 346 346 345 345 344 344 342 340 338 337 334 331 326 320 317 316 313 309 307 308 307 307 308 309 312 314 316 317 320 322 325 327 329 330 330 331 332 332 331 331 331 331 333 334 335 335 335 336 337 337 337 336 336 334 334 334 336 338 340 342 342 341 342 342 342 340 339
334 336 337 336 336 334 331 328 327 327 330 333 337 340 343 344 346 347 347 345 344 343 343 342 341 340 337 335 333 331 329 325 318 313 311 312 311 308 306 306 306 306 307 309 311 314 316 318 322 325 328 330 330 331 331 330 329 329 330 331 332 333 335 336 335 335 335 336 337 337 336 334 333 333 333 336 338 340 341 341 341 341 342 344 344 342 341